Location: Demmingen
(48.6757°N, 10.4375°E)
Time: 21:37:23
(UTC+00:00)

NOSS 3-4 (A) - Pass Details

Date: 23 May 2024
Orbit: 801 x 1410 km, 63.4° (Epoch: 04 June)

Event Time Altitude Azimuth Distance (km) Brightness Sun altitude
Rises 00:34:09 0° 315° (NW) 3,794 6.9 -18.5°
Reaches altitude 10° 00:36:47 10° 308° (NW) 2,924 6.2 -18.3°
Maximum altitude 00:43:15 41° 241° (WSW) 1,662 4.3 -17.9°
Enters shadow 00:47:12 25° 190° (S) 2,305 4.8 -17.7°
